Weather History for Fort Rucker / Ozark, AL

Change the Weather History Date:

Tuesday, November 1, 2011

  Actual Average (KDHN) Record (KDHN)
Temperature  
Mean Temperature 54 °F 63 °F  
Max Temperature 72 °F 75 °F 88 °F (1950)
Min Temperature 37 °F 50 °F 33 °F (1954)
Degree Days  
Heating Degree Days 10 4  
Month to date heating degree days 4  
Since 1 July heating degree days 63  
Cooling Degree Days 0 2  
Month to date cooling degree days 2  
Year to date cooling degree days 2365  
Growing Degree Days 4 (Base 50)    
Moisture  
Dew Point 37 °F    
Average Humidity 61    
Maximum Humidity 93    
Minimum Humidity 25    
Precipitation  
Precipitation 0.00 in 0.10 in 1.75 in (1947)
Month to date precipitation 0.10  
Year to date precipitation 45.49  
Sea Level Pressure  
Sea Level Pressure 30.23 in    
Wind  
Wind Speed 2 mph (ENE)    
Max Wind Speed 9 mph    
Max Gust Speed 16 mph    
Visibility 10 miles    
Events      
T = Trace of Precipitation, MM = Missing Value Source: NWS Daily Summary

Daily Weather History Graph

Daily Weather History Graph

Search for Another Location

Airport:

Trip Planner

Search our weather history database for the weather conditions in past years. The results will help you decide how hot, cold, wet, or windy it might be!

Date:

Astronomy

Nov. 01, 2011 Rise Set
Actual Time 6:58 AM CDT 5:54 PM CDT
Civil Twilight 6:33 AM CDT 6:19 PM CDT
Nautical Twilight 6:04 AM CDT 6:47 PM CDT
Astronomical Twilight 5:36 AM CDT 7:16 PM CDT
Moon 12:40 PM CDT (11/1) 11:38 PM CDT (11/1)
Length of Visible Light 11h 45m
Length of Day
10h 55m
Waxing Crescent, 40% of the Moon is Illuminated
Nov 1
Waxing Crescent
Nov 2
First Quarter
Nov 10
Full
Nov 18
Last Quarter
Nov 25
New

Hourly Weather History & Observations

Time (CDT) Temp. Dew Point Humidity Pressure Visibility Wind Dir Wind Speed Gust Speed Precip Events Conditions
12:53 AM 44.1 °F 39.9 °F 85% 30.19 in 10.0 mi Calm Calm - N/A   Clear
1:53 AM 41.0 °F 37.9 °F 89% 30.19 in 9.0 mi Calm Calm - N/A   Clear
2:53 AM 41.0 °F 37.9 °F 89% 30.20 in 9.0 mi Calm Calm - N/A   Clear
3:53 AM 39.0 °F 37.0 °F 93% 30.20 in 7.0 mi Calm Calm - N/A   Clear
4:53 AM 37.9 °F 36.0 °F 93% 30.21 in 8.0 mi Calm Calm - N/A   Clear
5:53 AM 37.9 °F 35.1 °F 89% 30.22 in 10.0 mi Calm Calm - N/A   Clear
6:53 AM 37.9 °F 35.1 °F 89% 30.24 in 8.0 mi Calm Calm - N/A   Clear
7:53 AM 39.9 °F 37.0 °F 89% 30.26 in 7.0 mi Calm Calm - N/A   Clear
8:53 AM 52.0 °F 44.1 °F 74% 30.28 in 10.0 mi North 3.5 mph - N/A   Clear
9:53 AM 61.0 °F 43.0 °F 52% 30.29 in 10.0 mi ENE 5.8 mph - N/A   Clear
10:53 AM 64.9 °F 39.9 °F 40% 30.29 in 10.0 mi East 9.2 mph - N/A   Clear
11:53 AM 68.0 °F 35.1 °F 30% 30.26 in 10.0 mi East 8.1 mph 16.1 mph N/A   Clear
12:53 PM 69.1 °F 36.0 °F 30% 30.23 in 10.0 mi East 8.1 mph - N/A   Clear
1:53 PM 70.0 °F 35.1 °F 28% 30.20 in 10.0 mi Variable 6.9 mph - N/A   Clear
2:53 PM 71.1 °F 34.0 °F 26% 30.20 in 10.0 mi Variable 3.5 mph - N/A   Clear
3:53 PM 72.0 °F 34.0 °F 25% 30.20 in 10.0 mi East 5.8 mph - N/A   Clear
4:53 PM 71.6 °F 33.8 °F 25% 30.21 in 10.0 mi East 3.5 mph - N/A   Clear
5:53 PM 66.0 °F 35.1 °F 32% 30.22 in 10.0 mi NE 3.5 mph - N/A   Clear
6:53 PM 55.9 °F 37.0 °F 49% 30.23 in 10.0 mi Calm Calm - N/A   Clear
7:53 PM 54.0 °F 37.0 °F 53% 30.24 in 10.0 mi Calm Calm - N/A   Clear
8:53 PM 50.0 °F 37.9 °F 63% 30.25 in 10.0 mi Calm Calm - N/A   Clear
9:53 PM 46.9 °F 37.9 °F 71% 30.25 in 10.0 mi Calm Calm - N/A   Clear
10:53 PM 45.0 °F 37.0 °F 74% 30.26 in 10.0 mi Calm Calm - N/A   Clear
11:53 PM 42.1 °F 37.0 °F 82% 30.25 in 10.0 mi Calm Calm - N/A   Clear